N6CTG Weather Reports


Display with metric or nautical units.
time (UTC)temp
F
wind
direction
speed
MPH
gust
MPH
rain 1hr
in
rain 24hr
in
rain mn
in
humidity
%
barometer
mb
20260905130004 54 0 0.0 0.0 0.00 0.00 0.00 70 1010.4
20260905125424 54 0 0.0 0.0 0.00 0.00 0.00 70 1010.3
20260905124504 54 0 0.0 0.0 0.00 0.00 0.00 70 1010.2
20260905123603 54 0 0.0 0.0 0.00 0.00 0.00 70 1010.3
20260905122704 54 0 0.0 0.0 0.00 0.00 0.00 70 1010.3
20260905121804 54 0 0.0 0.0 0.00 0.00 0.00 70 1010.3
20260905120904 54 0 0.0 0.0 0.00 0.00 0.00 70 1010.4
20260905120025 54 0 0.0 0.0 0.00 0.00 0.00 70 1010.3
20260905115403 54 0 0.0 0.0 0.00 0.00 0.00 70 1010.3
20260905114503 54 0 0.0 0.0 0.00 0.00 0.00 70 1010.2
20260905113625 56 0 0.0 0.0 0.00 0.00 0.00 70 1010.3
20260905112703 56 0 0.0 0.0 0.00 0.00 0.00 70 1010.3
20260905111804 56 0 0.0 0.0 0.00 0.00 0.00 70 1010.2
20260905110924 56 0 0.0 0.0 0.00 0.00 0.00 70 1010.4
20260905110004 56 0 0.0 0.0 0.00 0.00 0.00 70 1010.4
20260905105404 57 0 0.0 0.0 0.00 0.00 0.00 70 1010.5
20260905104503 56 0 0.0 0.0 0.00 0.00 0.00 71 1010.5
20260905103603 56 0 0.0 0.0 0.00 0.00 0.00 72 1010.5
20260905102704 56 0 0.0 0.0 0.00 0.00 0.00 71 1010.5
20260905101803 57 0 0.0 0.0 0.00 0.00 0.00 71 1010.4
20260905100903 57 0 0.0 0.0 0.00 0.00 0.00 71 1010.5
20260905100025 57 0 0.0 0.0 0.00 0.00 0.00 72 1010.6
20260905095404 57 0 0.0 0.0 0.00 0.00 0.00 72 1010.5
20260905094525 57 0 0.0 0.0 0.00 0.00 0.00 72 1010.6
20260905093604 57 0 0.0 0.0 0.00 0.00 0.00 72 1010.6
20260905092703 58 0 0.0 0.0 0.00 0.00 0.00 72 1010.6
20260905091825 58 0 0.0 0.0 0.00 0.00 0.00 72 1010.7
20260905090904 58 0 0.0 0.0 0.00 0.00 0.00 72 1010.6
20260905090025 58 0 0.0 0.0 0.00 0.00 0.00 72 1010.8
20260905085404 58 0 0.0 0.0 0.00 0.00 0.00 72 1010.8
20260905084504 58 0 0.0 0.0 0.00 0.00 0.00 71 1011.0
20260905083603 59 0 0.0 0.0 0.00 0.00 0.00 70 1011.0
20260905082725 59 0 0.0 0.0 0.00 0.00 0.00 70 1011.0
20260905081824 59 0 0.0 0.0 0.00 0.00 0.00 70 1011.1
20260905080925 59 0 0.0 0.0 0.00 0.00 0.00 70 1011.2
20260905080004 59 0 0.0 0.0 0.00 0.00 0.00 70 1011.3
20260905075403 60 0 0.0 0.0 0.00 0.00 0.00 70 1011.4
20260905074525 60 0 0.0 0.0 0.00 0.00 0.00 70 1011.5
20260905073603 60 0 0.0 0.0 0.00 0.00 0.00 70 1011.6
20260905072704 60 0 0.0 0.0 0.00 0.00 0.00 70 1011.6
20260905071803 60 0 0.0 0.0 0.00 0.00 0.00 69 1011.5
20260905070903 60 0 0.0 0.0 0.00 0.00 0.00 69 1011.5
20260905070004 60 0 0.0 0.0 0.00 0.00 0.00 69 1011.4
20260905065404 61 0 0.0 0.0 0.00 0.00 0.00 69 1011.4
20260905064524 61 0 0.0 0.0 0.00 0.00 0.00 68 1011.4
20260905063604 61 0 0.0 0.0 0.00 0.00 0.00 68 1011.3
20260905062704 62 0 0.0 0.0 0.00 0.00 0.00 68 1011.2
20260905061803 62 0 0.0 0.0 0.00 0.00 0.00 68 1011.1
20260905060904 62 0 0.0 0.0 0.00 0.00 0.00 68 1011.1
20260905060004 62 0 0.0 0.0 0.00 0.00 0.00 67 1011.1
20260905055404 62 0 0.0 0.0 0.00 0.00 0.00 67 1011.1
20260905054525 62 0 0.0 0.0 0.00 0.00 0.00 68 1011.1
20260905053604 62 0 0.0 0.0 0.00 0.00 0.00 67 1011.0
20260905052703 63 0 0.0 0.0 0.00 0.00 0.00 67 1011.0
20260905051804 63 0 0.0 0.0 0.00 0.00 0.00 67 1011.0
20260905050904 64 0 0.0 0.0 0.00 0.00 0.00 67 1010.9
20260905050004 64 0 0.0 0.0 0.00 0.00 0.00 66 1010.8
20260905045425 64 0 0.0 0.0 0.00 0.00 0.00 66 1010.9
20260905044504 64 0 0.0 0.0 0.00 0.00 0.00 66 1010.8
20260905043604 64 0 0.0 0.0 0.00 0.00 0.00 66 1010.7
20260905042703 65 0 0.0 0.0 0.00 0.00 0.00 65 1010.6
20260905041825 65 0 0.0 0.0 0.00 0.00 0.00 64 1010.6
20260905040903 66 0 0.0 0.0 0.00 0.00 0.00 64 1010.6
20260905040003 66 0 0.0 0.0 0.00 0.00 0.00 63 1010.5
20260905035403 67 0 0.0 0.0 0.00 0.00 0.00 63 1010.5
20260905034503 67 0 0.0 0.0 0.00 0.00 0.00 61 1010.5
20260905033625 68 0 0.0 0.0 0.00 0.00 0.00 60 1010.3
20260905032724 69 0 0.0 0.0 0.00 0.00 0.00 60 1010.2
20260905031804 69 0 0.0 0.0 0.00 0.00 0.00 59 1010.1
20260905030904 70 0 0.0 0.0 0.00 0.00 0.00 58 1010.0
20260905030004 71 0 0.0 0.0 0.00 0.00 0.00 57 1009.9
20260905025404 71 0 0.0 0.0 0.00 0.00 0.00 56 1009.8
20260905024504 72 0 0.0 0.0 0.00 0.00 0.00 54 1009.8
20260905023604 72 266 0.0 2.0 0.00 0.00 0.00 53 1009.7
20260905022703 73 250 0.0 1.0 0.00 0.00 0.00 51 1009.7
20260905021803 74 246 1.0 4.0 0.00 0.00 0.00 50 1009.7
20260905020903 75 241 1.0 4.0 0.00 0.00 0.00 48 1009.7
20260905020004 76 240 2.0 5.0 0.00 0.00 0.00 47 1009.6
20260905015404 77 242 2.0 5.0 0.00 0.00 0.00 46 1009.5
20260905014503 78 241 2.0 5.0 0.00 0.00 0.00 45 1009.5
20260905013625 78 245 2.0 5.0 0.00 0.00 0.00 44 1009.5
20260905012703 79 240 3.0 8.0 0.00 0.00 0.00 42 1009.5
20260905011803 80 252 2.0 5.0 0.00 0.00 0.00 41 1009.4
20260905010903 81 256 2.0 6.0 0.00 0.00 0.00 41 1009.4
20260905010004 81 248 3.0 8.0 0.00 0.00 0.00 41 1009.4
20260905005403 81 246 3.0 8.0 0.00 0.00 0.00 41 1009.3
20260905004504 81 243 3.0 5.0 0.00 0.00 0.00 41 1009.4
20260905003604 81 258 3.0 7.0 0.00 0.00 0.00 41 1009.4
20260905002703 82 247 3.0 8.0 0.00 0.00 0.00 41 1009.5
20260905001803 82 241 4.0 8.0 0.00 0.00 0.00 42 1009.4
20260905000904 82 230 5.0 8.0 0.00 0.00 0.00 41 1009.5
20260905000003 83 239 4.0 9.0 0.00 0.00 0.00 39 1009.4
20260904235404 83 242 4.0 9.0 0.00 0.00 0.00 39 1009.5
20260904234504 83 234 4.0 9.0 0.00 0.00 0.00 40 1009.4
20260904233604 84 228 4.0 9.0 0.00 0.00 0.00 36 1009.4
20260904232724 83 229 5.0 10.0 0.00 0.00 0.00 39 1009.4
20260904231804 84 229 4.0 9.0 0.00 0.00 0.00 37 1009.4
20260904230903 84 229 4.0 10.0 0.00 0.00 0.00 37 1009.4
20260904230004 84 216 4.0 10.0 0.00 0.00 0.00 37 1009.6
20260904225403 84 224 5.0 13.0 0.00 0.00 0.00 37 1009.6
20260904224524 84 226 5.0 11.0 0.00 0.00 0.00 36 1009.6
20260904223603 85 211 4.0 10.0 0.00 0.00 0.00 36 1009.6
20260904222703 85 178 4.0 7.0 0.00 0.00 0.00 35 1009.7
20260904221803 85 215 4.0 7.0 0.00 0.00 0.00 36 1009.7
20260904220904 85 228 5.0 11.0 0.00 0.00 0.00 36 1009.7
20260904220004 86 232 4.0 10.0 0.00 0.00 0.00 36 1009.7
20260904215404 86 233 6.0 12.0 0.00 0.00 0.00 35 1009.7
20260904214504 86 215 4.0 10.0 0.00 0.00 0.00 35 1009.8
20260904213603 86 227 4.0 11.0 0.00 0.00 0.00 36 1009.8
20260904212703 85 237 5.0 12.0 0.00 0.00 0.00 34 1009.8
20260904211804 86 235 6.0 12.0 0.00 0.00 0.00 33 1009.8
20260904210903 86 223 5.0 11.0 0.00 0.00 0.00 32 1009.9
20260904210004 87 193 3.0 9.0 0.00 0.00 0.00 26 1009.9
20260904205404 87 200 2.0 9.0 0.00 0.00 0.00 26 1010.1
20260904204524 86 242 4.0 7.0 0.00 0.00 0.00 25 1010.1
20260904203603 86 228 4.0 9.0 0.00 0.00 0.00 25 1010.1
20260904202703 87 181 3.0 6.0 0.00 0.00 0.00 25 1010.0
20260904201804 86 223 3.0 8.0 0.00 0.00 0.00 21 1010.2
20260904200904 85 232 4.0 10.0 0.00 0.00 0.00 22 1010.2
20260904200004 85 232 4.0 10.0 0.00 0.00 0.00 23 1010.3
20260904195404 84 236 5.0 10.0 0.00 0.00 0.00 24 1010.3
20260904194503 84 235 4.0 11.0 0.00 0.00 0.00 24 1010.4
20260904193603 84 229 3.0 9.0 0.00 0.00 0.00 24 1010.4
20260904192703 84 227 4.0 9.0 0.00 0.00 0.00 25 1010.6
20260904191804 84 242 5.0 13.0 0.00 0.00 0.00 24 1010.6
20260904190903 83 231 4.0 8.0 0.00 0.00 0.00 26 1010.7
20260904190025 83 221 3.0 8.0 0.00 0.00 0.00 23 1010.9
20260904185403 83 226 2.0 8.0 0.00 0.00 0.00 23 1010.9
20260904184504 82 223 3.0 8.0 0.00 0.00 0.00 25 1011.1
20260904183604 81 220 3.0 7.0 0.00 0.00 0.00 24 1011.0
20260904182704 81 239 2.0 5.0 0.00 0.00 0.00 26 1011.1
20260904181825 80 204 2.0 7.0 0.00 0.00 0.00 24 1011.2
20260904180903 79 221 2.0 8.0 0.00 0.00 0.00 25 1011.3
20260904180003 78 232 3.0 8.0 0.00 0.00 0.00 28 1011.3
20260904175403 78 226 3.0 7.0 0.00 0.00 0.00 29 1011.4
20260904174503 77 234 2.0 8.0 0.00 0.00 0.00 35 1011.4
20260904173604 76 204 3.0 8.0 0.00 0.00 0.00 39 1011.3
20260904172703 75 240 2.0 5.0 0.00 0.00 0.00 46 1011.4
20260904171803 75 230 4.0 7.0 0.00 0.00 0.00 46 1011.4
20260904170904 74 215 2.0 7.0 0.00 0.00 0.00 50 1011.4
20260904170004 73 157 1.0 4.0 0.00 0.00 0.00 53 1011.4
20260904165404 72 225 0.0 2.0 0.00 0.00 0.00 57 1011.4
20260904164503 70 247 1.0 3.0 0.00 0.00 0.00 61 1011.3
20260904163604 69 239 0.0 3.0 0.00 0.00 0.00 63 1011.2
20260904162703 68 232 1.0 3.0 0.00 0.00 0.00 66 1011.1
20260904161803 68 287 0.0 3.0 0.00 0.00 0.00 71 1011.0
20260904160925 67 0 0.0 0.0 0.00 0.00 0.00 75 1011.0
20260904160004 65 243 0.0 3.0 0.00 0.00 0.00 79 1011.0
20260904155403 64 174 0.0 3.0 0.00 0.00 0.00 82 1011.0
20260904154504 63 231 0.0 1.0 0.00 0.00 0.00 84 1011.0
20260904153624 62 231 0.0 1.0 0.00 0.00 0.00 86 1010.9
20260904152703 61 248 0.0 1.0 0.00 0.00 0.00 87 1010.9
20260904151804 60 166 0.0 2.0 0.00 0.00 0.00 88 1010.8
20260904150904 60 248 0.0 2.0 0.00 0.00 0.00 90 1011.0
20260904150004 59 242 0.0 2.0 0.00 0.00 0.00 90 1011.0
20260904145425 59 248 0.0 1.0 0.00 0.00 0.00 90 1010.9
20260904144503 59 171 0.0 1.0 0.00 0.00 0.00 90 1010.9
20260904143603 58 181 1.0 3.0 0.00 0.00 0.00 90 1010.9
20260904142703 58 0 0.0 0.0 0.00 0.00 0.00 89 1010.7
20260904141804 58 0 0.0 0.0 0.00 0.00 0.00 89 1010.7
20260904140925 58 0 0.0 0.0 0.00 0.00 0.00 89 1010.7
20260904140004 58 0 0.0 0.0 0.00 0.00 0.00 89 1010.6
20260904135403 58 0 0.0 0.0 0.00 0.00 0.00 89 1010.6
20260904134525 58 0 0.0 0.0 0.00 0.00 0.00 89 1010.6
20260904133604 58 0 0.0 0.0 0.00 0.00 0.00 89 1010.4
20260904132703 58 0 0.0 0.0 0.00 0.00 0.00 89 1010.3
20260904131804 58 0 0.0 0.0 0.00 0.00 0.00 89 1010.2
20260904130903 58 0 0.0 0.0 0.00 0.00 0.00 89 1010.3